THY8ZX LTFM-LTFD

Flight info

Callsign THY8ZX
Flight time 0h 29m
Altitude 16000
Route IVGUS1H/18 IVGUS UY227 RAUMA UN618 LEDLO
Aircraft A320/M-SDE3FGHIRWY/LB1

Departure

Time 2026-04-26 15:11
Airport İstanbul Airport (LTFM)

Arrival

Time 2026-04-26 15:41
Airport Balıkesir Koca Seyit Airport (LTFD)
Time Latitude Longitude Altitude Speed Heading
2026-04-26 14:37 41.25878 28.75010 334 ft 0 kts 251°
2026-04-26 14:57 41.25879 28.75016 330 ft 4 kts 251°
2026-04-26 14:58 41.25887 28.75050 332 ft 4 kts 258°
2026-04-26 14:58 41.25891 28.75085 332 ft 4 kts 273°
2026-04-26 14:58 41.25885 28.75116 330 ft 4 kts 321°
2026-04-26 14:58 41.25875 28.75124 331 ft 1 kts 342°
2026-04-26 14:59 41.25874 28.75124 331 ft 0 kts 342°
2026-04-26 15:02 41.25881 28.75121 331 ft 2 kts 342°
2026-04-26 15:02 41.25903 28.75111 331 ft 5 kts 340°
2026-04-26 15:02 41.25940 28.75093 333 ft 7 kts 340°
2026-04-26 15:02 41.25990 28.75069 331 ft 9 kts 341°
2026-04-26 15:03 41.26054 28.75041 333 ft 11 kts 341°
2026-04-26 15:03 41.26131 28.75006 332 ft 13 kts 341°
2026-04-26 15:03 41.26221 28.74994 334 ft 14 kts 31°
2026-04-26 15:03 41.26240 28.75122 334 ft 15 kts 90°
2026-04-26 15:04 41.26241 28.75274 334 ft 17 kts 89°
2026-04-26 15:04 41.26302 28.75380 333 ft 16 kts
2026-04-26 15:04 41.26420 28.75378 332 ft 18 kts 359°
2026-04-26 15:04 41.26552 28.75377 332 ft 20 kts 359°
2026-04-26 15:05 41.26697 28.75374 333 ft 22 kts 360°
2026-04-26 15:05 41.26800 28.75373 330 ft 23 kts 359°
2026-04-26 15:05 41.27025 28.75370 332 ft 25 kts 359°
2026-04-26 15:05 41.27200 28.75368 332 ft 26 kts 360°
2026-04-26 15:06 41.27387 28.75365 330 ft 28 kts 359°
2026-04-26 15:06 41.27591 28.75362 334 ft 30 kts 359°
2026-04-26 15:06 41.27793 28.75358 334 ft 28 kts 359°
2026-04-26 15:06 41.27947 28.75358 330 ft 21 kts
2026-04-26 15:07 41.28260 28.75352 333 ft 24 kts
2026-04-26 15:07 41.28436 28.75349 330 ft 26 kts 359°
2026-04-26 15:07 41.28627 28.75346 333 ft 28 kts
2026-04-26 15:08 41.28764 28.75345 334 ft 16 kts 359°
2026-04-26 15:08 41.28814 28.75428 331 ft 11 kts 86°
2026-04-26 15:08 41.28813 28.75539 333 ft 13 kts 90°
2026-04-26 15:08 41.28804 28.75630 334 ft 7 kts 149°
2026-04-26 15:09 41.28789 28.75632 334 ft 0 kts 180°
2026-04-26 15:09 41.28787 28.75632 330 ft 1 kts 180°
2026-04-26 15:09 41.28784 28.75632 331 ft 0 kts 180°
2026-04-26 15:10 41.28697 28.75633 333 ft 40 kts 179°
2026-04-26 15:10 41.28188 28.75639 334 ft 103 kts 179°
2026-04-26 15:11 41.27302 28.75651 361 ft 146 kts 183°
2026-04-26 15:11 41.26276 28.75751 878 ft 149 kts 172°
2026-04-26 15:11 41.25254 28.76235 1304 ft 166 kts 152°
2026-04-26 15:11 41.24198 28.77147 1489 ft 202 kts 150°
2026-04-26 15:12 41.22931 28.78270 1681 ft 232 kts 149°
2026-04-26 15:12 41.21510 28.79507 2151 ft 254 kts 149°
2026-04-26 15:12 41.20006 28.80811 2952 ft 262 kts 149°
2026-04-26 15:12 41.18406 28.82001 3799 ft 265 kts 165°
2026-04-26 15:13 41.16561 28.82271 4540 ft 272 kts 186°
2026-04-26 15:13 41.14675 28.82143 5403 ft 277 kts 186°
2026-04-26 15:13 41.12726 28.82002 6343 ft 280 kts 186°
2026-04-26 15:13 41.10764 28.81866 7194 ft 284 kts 186°
2026-04-26 15:14 41.08794 28.81736 7829 ft 290 kts 185°
2026-04-26 15:14 41.06769 28.81607 8658 ft 293 kts 185°
2026-04-26 15:14 41.04721 28.81476 9492 ft 297 kts 185°
2026-04-26 15:14 41.02639 28.81339 10224 ft 304 kts 185°
2026-04-26 15:15 41.00453 28.81119 10462 ft 326 kts 192°
2026-04-26 15:15 40.98242 28.80258 10887 ft 336 kts 206°
2026-04-26 15:15 40.96227 28.78683 11541 ft 337 kts 220°
2026-04-26 15:15 40.94560 28.76514 12234 ft 337 kts 234°
2026-04-26 15:16 40.93267 28.73918 12790 ft 340 kts 241°
2026-04-26 15:16 40.92032 28.71254 12940 ft 340 kts 241°
2026-04-26 15:16 40.90857 28.68582 12969 ft 333 kts 246°
2026-04-26 15:16 40.89857 28.65834 12969 ft 331 kts 247°
2026-04-26 15:17 40.88854 28.63087 12975 ft 332 kts 246°
2026-04-26 15:17 40.88189 28.61270 12975 ft 332 kts 246°
2026-04-26 15:17 40.86843 28.57596 12973 ft 332 kts 246°
2026-04-26 15:17 40.85836 28.54852 12980 ft 332 kts 246°
2026-04-26 15:18 40.84829 28.52112 12977 ft 332 kts 246°
2026-04-26 15:18 40.83923 28.49319 12973 ft 330 kts 255°
2026-04-26 15:18 40.83469 28.46369 12982 ft 327 kts 266°
2026-04-26 15:18 40.83241 28.43383 12983 ft 327 kts 266°
2026-04-26 15:19 40.82993 28.40392 12982 ft 328 kts 263°
2026-04-26 15:19 40.82287 28.37524 12984 ft 332 kts 244°
2026-04-26 15:19 40.80858 28.35109 12979 ft 337 kts 227°
2026-04-26 15:19 40.79187 28.32939 12978 ft 338 kts 227°
2026-04-26 15:20 40.77499 28.30778 12980 ft 338 kts 226°
2026-04-26 15:20 40.75805 28.28618 12983 ft 339 kts 226°
2026-04-26 15:20 40.74114 28.26461 12987 ft 339 kts 226°
2026-04-26 15:20 40.72443 28.24328 12990 ft 339 kts 226°
2026-04-26 15:21 40.70751 28.22167 12988 ft 339 kts 226°
2026-04-26 15:21 40.69059 28.20005 12994 ft 339 kts 227°
2026-04-26 15:21 40.67366 28.17841 12996 ft 339 kts 226°
2026-04-26 15:21 40.65672 28.15675 12997 ft 339 kts 227°
2026-04-26 15:22 40.63980 28.13511 12994 ft 339 kts 226°
2026-04-26 15:22 40.62290 28.11352 12996 ft 339 kts 226°
2026-04-26 15:22 40.60602 28.09194 12997 ft 338 kts 226°
2026-04-26 15:22 40.58914 28.07036 13003 ft 338 kts 226°
2026-04-26 15:23 40.57225 28.04882 12994 ft 338 kts 226°
2026-04-26 15:23 40.55533 28.02726 12993 ft 338 kts 226°
2026-04-26 15:23 40.53841 28.00577 12993 ft 339 kts 226°
2026-04-26 15:23 40.52146 27.98422 12991 ft 339 kts 226°
2026-04-26 15:24 40.50451 27.96271 12995 ft 339 kts 226°
2026-04-26 15:24 40.47490 27.92523 12991 ft 339 kts 226°
2026-04-26 15:24 40.45795 27.90379 12994 ft 338 kts 226°
2026-04-26 15:25 40.44099 27.88231 12993 ft 339 kts 226°
2026-04-26 15:25 40.42976 27.86809 12998 ft 339 kts 226°
2026-04-26 15:25 40.40708 27.83933 12997 ft 339 kts 226°
2026-04-26 15:25 40.39011 27.81780 13002 ft 339 kts 226°
2026-04-26 15:26 40.37339 27.79662 13004 ft 339 kts 226°
2026-04-26 15:26 40.35640 27.77517 13001 ft 339 kts 226°
2026-04-26 15:26 40.33940 27.75380 12996 ft 338 kts 226°
2026-04-26 15:26 40.32242 27.73248 13000 ft 338 kts 226°
2026-04-26 15:27 40.30544 27.71111 13005 ft 338 kts 226°
2026-04-26 15:27 40.28851 27.68976 13001 ft 338 kts 226°
2026-04-26 15:27 40.27155 27.66844 12998 ft 338 kts 226°
2026-04-26 15:27 40.25455 27.64714 12999 ft 338 kts 226°
2026-04-26 15:28 40.23756 27.62586 12999 ft 338 kts 226°
2026-04-26 15:28 40.22063 27.60462 12997 ft 337 kts 226°
2026-04-26 15:28 40.20371 27.58338 13002 ft 337 kts 226°
2026-04-26 15:28 40.18677 27.56214 13002 ft 337 kts 226°
2026-04-26 15:29 40.16982 27.54090 13004 ft 337 kts 226°
2026-04-26 15:29 40.15288 27.51971 13001 ft 337 kts 226°
2026-04-26 15:29 40.11898 27.47731 13005 ft 337 kts 226°
2026-04-26 15:30 40.08528 27.43517 12602 ft 331 kts 226°
2026-04-26 15:30 40.06870 27.41449 12205 ft 328 kts 226°
2026-04-26 15:30 40.05245 27.39429 11817 ft 325 kts 226°
2026-04-26 15:31 40.03612 27.37403 11454 ft 322 kts 226°
2026-04-26 15:31 40.00399 27.33421 10723 ft 316 kts 226°
2026-04-26 15:31 39.98666 27.31703 10538 ft 310 kts 212°
2026-04-26 15:32 39.95327 27.30332 10192 ft 302 kts 191°
2026-04-26 15:32 39.92560 27.29823 9785 ft 299 kts 191°
2026-04-26 15:32 39.90508 27.29448 9431 ft 297 kts 191°
2026-04-26 15:33 39.88470 27.29075 9096 ft 295 kts 191°
2026-04-26 15:33 39.86460 27.28709 8529 ft 290 kts 190°
2026-04-26 15:33 39.84470 27.28342 7905 ft 288 kts 190°
2026-04-26 15:33 39.82497 27.27975 7268 ft 286 kts 190°
2026-04-26 15:34 39.80523 27.27762 6670 ft 284 kts 179°
2026-04-26 15:34 39.78556 27.27875 6219 ft 282 kts 178°
2026-04-26 15:34 39.76589 27.27983 5828 ft 283 kts 179°
2026-04-26 15:34 39.74630 27.28092 5516 ft 281 kts 178°
2026-04-26 15:35 39.72702 27.28163 5109 ft 272 kts 185°
2026-04-26 15:35 39.70925 27.27586 4764 ft 258 kts 207°
2026-04-26 15:35 39.69526 27.26279 4546 ft 239 kts 229°
2026-04-26 15:35 39.68567 27.24669 4364 ft 219 kts 236°
2026-04-26 15:36 39.67688 27.23102 4198 ft 211 kts 236°
2026-04-26 15:36 39.66831 27.21579 4041 ft 203 kts 235°
2026-04-26 15:36 39.66036 27.20168 3874 ft 185 kts 235°
2026-04-26 15:36 39.65320 27.18898 3697 ft 164 kts 236°
2026-04-26 15:37 39.64668 27.17744 3432 ft 154 kts 235°
2026-04-26 15:37 39.64039 27.16631 3186 ft 151 kts 236°
2026-04-26 15:37 39.63426 27.15541 2946 ft 148 kts 236°
2026-04-26 15:37 39.62821 27.14470 2725 ft 147 kts 235°
2026-04-26 15:38 39.62221 27.13409 2502 ft 145 kts 235°
2026-04-26 15:38 39.61629 27.12359 2281 ft 143 kts 235°
2026-04-26 15:38 39.61048 27.11328 2052 ft 140 kts 234°
2026-04-26 15:38 39.60474 27.10307 1828 ft 140 kts 235°
2026-04-26 15:39 39.59903 27.09291 1614 ft 139 kts 234°
2026-04-26 15:39 39.59335 27.08283 1398 ft 138 kts 233°
2026-04-26 15:39 39.58768 27.07279 1186 ft 139 kts 234°
2026-04-26 15:39 39.58397 27.06611 1039 ft 138 kts 235°
2026-04-26 15:40 39.57661 27.05261 724 ft 136 kts 232°
2026-04-26 15:40 39.57078 27.04297 502 ft 135 kts 233°
2026-04-26 15:40 39.56536 27.03290 272 ft 137 kts 233°
2026-04-26 15:40 39.55966 27.02310 69 ft 135 kts 233°
2026-04-26 15:41 39.55539 27.01564 53 ft 51 kts 233°
2026-04-26 15:41 39.55350 27.01217 54 ft 44 kts 234°
2026-04-26 15:41 39.55245 27.01032 52 ft 23 kts 234°
2026-04-26 15:41 39.55161 27.00954 49 ft 11 kts 166°
2026-04-26 15:42 39.55113 27.00991 48 ft 10 kts 145°
2026-04-26 15:42 39.55053 27.01049 48 ft 12 kts 144°
2026-04-26 15:42 39.55021 27.01079 50 ft 4 kts 144°
2026-04-26 15:42 39.54990 27.01107 51 ft 7 kts 147°
2026-04-26 15:43 39.54942 27.01144 51 ft 9 kts 143°
2026-04-26 15:43 39.54925 27.01160 51 ft 0 kts 143°